Orbital Elements at Epoch 2454502.5 (2008-Feb-06.0) TDB
Reference: JPL 20 (heliocentric ecliptic J2000)
Element | Value | Uncertainty (1-sigma) | Units |
e | .3041235958760041 | 2.6864e-07 | |
a | 4.208439501003299 | 1.4386e-07 | au |
q | 2.928553746931559 | 1.0541e-06 | au |
i | 10.12740142886888 | 1.8153e-05 | deg |
node | 143.0126416009267 | 6.4969e-05 | deg |
peri | 225.3826675493708 | 0.00017568 | deg |
M | 84.53112378668125 | 9.4756e-05 | deg |
tp | 2453762.052619193189 (2006-Jan-26.55261919) | 0.00085925 | TDB |
period | 3153.407232147213 8.63 | 0.0001617 4.427e-07 | d yr |
n | .1141622294545413 | 5.8538e-09 | deg/d |
Q | 5.488325255075039 | 1.8761e-07 | au |
|
| | Orbit Determination Parameters
Additional Information
|